sat.trackr.live / text

‹ back to catalog

STARLINK-35222

NORAD 65677 · 2025-212B

PAYLOAD ACTIVE UNKNOWN

§ Identity

Operator
Country
US
Launch date
2025-09-21
Launch site
AFETR
Launch vehicle
Mass (kg)
RCS (m²)

Purposes: comms

External: N2YO · Heavens-Above · Gunter

§ Orbital elements

Epoch: 2026-09-20T04:38:59.041824Z

Period
93.85 min
Inclination
53.1568°
Eccentricity
0.0001034
Mean motion
15.34408534 rev/d
Perigee alt
462.0 km
Apogee alt
463.4 km
Semi-major
6,840.8 km
B*
3.0123e-4
RAAN
159.3437°
Arg perigee
69.4612°
Mean anomaly
290.6501°
Rev number
5,707

§ Raw data

STARLINK-352221 65677U 25212B   26263.19373891  .00009817  00000+0  30123-3 0  99992 65677  53.1568 159.3437 0001034  69.4612 290.6501 15.34408534 57078

JSON: /api/v1/satellites/65677 · /tle

For live sub-satellite position, see the globe view (requires WebGL).

§ Visibility from observer

Set your observer location to see the next 7 days of passes ≥ 10°. The values pass through the URL so the page stays shareable.

No JS? Fill the form by hand. The geolocation button needs JavaScript.